CW2732 Elche ES current weather conditions

sailwx.info

Wind from 042

Air temperature 11.1° C
Dewpoint 8.9° C

Last reported at 2020-Jan-21 22:03 UTC.
Time now 2020-Jan-21 23:04 UTC

Location: N 38°15' W 000°42'.
View on Google Maps.

See reports from other nearby stations

  
Tides and Currents Weather Stations Pressure Air Temp Water Temp Dewpoint Dewpoint Depression Visibility Wind Speed Wind Dir Waves Ship Positions
date/time (UTC)wind fromknots sea level pressurealtimeterstation pressurevisibilityair tempwater tempwave heightnotes
2020-Jan-21 22:03 042 11.1
2020-Jan-21 21:53 040 11.1
2020-Jan-21 21:43 040 11.1
2020-Jan-21 21:33 034 11.1
2020-Jan-21 21:23 034 10.6
2020-Jan-21 21:13 033 11.1
2020-Jan-21 21:03 035 11.1
2020-Jan-21 20:53 038 11.1
2020-Jan-21 20:43 037 11.1
2020-Jan-21 20:33 047 11.1
2020-Jan-21 20:23 048 11.1
2020-Jan-21 20:13 074 0 gusting 3 11.1
2020-Jan-21 20:03 107 11.1
2020-Jan-21 19:53 184 11.1
2020-Jan-21 19:43 185 11.1
2020-Jan-21 19:33 182 11.1
2020-Jan-21 19:23 186 11.7
2020-Jan-21 19:13 188 11.7
2020-Jan-21 19:03 185 11.7
2020-Jan-21 18:53 186 11.7
2020-Jan-21 18:43 187 11.7
2020-Jan-21 18:33 186 11.7
2020-Jan-21 18:23 186 11.7
2020-Jan-21 18:13 186 11.7
2020-Jan-21 18:03 186 11.7
2020-Jan-21 17:53 185 11.7
2020-Jan-21 17:43 186 11.7
2020-Jan-21 17:33 186 11.7
2020-Jan-21 17:23 186 11.7
2020-Jan-21 17:13 186 11.7
2020-Jan-21 17:03 184 11.7
2020-Jan-21 16:53 186 12.2
2020-Jan-21 16:43 186 12.2
2020-Jan-21 16:33 186 12.2
2020-Jan-21 16:23 186 12.8
2020-Jan-21 16:13 186 12.8
2020-Jan-21 16:03 184 12.8
2020-Jan-21 15:53 184 12.8
2020-Jan-21 15:43 186 12.8
2020-Jan-21 15:33 186 13.3
2020-Jan-21 15:23 180 13.3
2020-Jan-21 15:13 161 13.3
2020-Jan-21 15:03 176 0 gusting 4 13.9
2020-Jan-21 14:53 166 13.9
2020-Jan-21 14:43 229 14.4
2020-Jan-21 14:33 173 1 gusting 6 14.4
2020-Jan-21 14:23 217 0 gusting 4 15.0
2020-Jan-21 14:13 168 15.0
2020-Jan-21 14:03 167 15.0
2020-Jan-21 13:53 167 15.0
2020-Jan-21 13:43 183 15.0
2020-Jan-21 13:33 184 15.0
2020-Jan-21 13:23 237 15.0
2020-Jan-21 13:13 225 14.4
2020-Jan-21 13:03 199 14.4
2020-Jan-21 12:53 172 14.4
2020-Jan-21 12:43 202 14.4
2020-Jan-21 12:34 154 14.4
2020-Jan-21 12:23 107 0 gusting 10 14.4
2020-Jan-21 12:13 114 13.9
2020-Jan-21 12:03 168 13.3
2020-Jan-21 11:53 115 12.8
2020-Jan-21 11:43 151 12.2
2020-Jan-21 11:33 253 11.7
2020-Jan-21 11:23 263 0 gusting 6 11.1
2020-Jan-21 11:13 273 11.1
2020-Jan-21 11:03 265 0 gusting 6 12.2
2020-Jan-21 10:53 268 10 gusting 17 13.9
2020-Jan-21 10:43 094 10 gusting 19 13.9
2020-Jan-21 10:33 063 5 gusting 20 13.9
2020-Jan-21 10:23 024 7 gusting 15 13.9
2020-Jan-21 10:13 054 6 gusting 18 13.3
2020-Jan-21 10:03 014 9 gusting 17 13.3
2020-Jan-21 09:53 048 8 gusting 16 12.8
2020-Jan-21 09:43 101 9 gusting 19 12.8
2020-Jan-21 09:33 040 9 gusting 18 12.8
2020-Jan-21 09:23 040 12 gusting 17 12.8
2020-Jan-21 09:13 072 10 gusting 18 12.8
2020-Jan-21 09:03 072 4 gusting 13 12.2
2020-Jan-21 08:53 045 6 gusting 22 12.2
2020-Jan-21 08:43 087 5 gusting 14 12.2
2020-Jan-21 08:33 051 5 gusting 13 12.2
2020-Jan-21 08:23 052 0 gusting 5 12.2
2020-Jan-21 08:13 046 1 gusting 8 12.2
2020-Jan-21 08:03 051 2 gusting 9 12.8
2020-Jan-21 07:53 053 8 gusting 13 12.8
2020-Jan-21 07:43 068 12.2
2020-Jan-21 07:33 083 6 gusting 13 12.2
2020-Jan-21 07:23 042 7 gusting 15 12.2
2020-Jan-21 07:13 062 11 gusting 19 11.7
2020-Jan-21 07:03 078 3 gusting 12 10.0
2020-Jan-21 06:53 010 2 gusting 10 9.4
2020-Jan-21 06:43 013 4 gusting 14 8.9
2020-Jan-21 06:33 342 6 gusting 13 8.9
2020-Jan-21 06:23 296 2 gusting 16 8.3
2020-Jan-21 06:13 328 5 gusting 13 8.3
2020-Jan-21 06:03 319 4 gusting 15 8.3
2020-Jan-21 05:53 331 8 gusting 16 8.3
2020-Jan-21 05:43 319 7 gusting 17 8.9
2020-Jan-21 05:33 307 2 gusting 12 8.9
2020-Jan-21 05:23 033 1 gusting 13 8.9
2020-Jan-21 05:13 331 0 gusting 7 8.3
2020-Jan-21 05:03 331 1 gusting 7 8.3
2020-Jan-21 04:53 340 8.3
2020-Jan-21 04:43 005 6 gusting 12 8.3
2020-Jan-21 04:34 009 3 gusting 7 8.3
2020-Jan-21 04:23 313 8.3
2020-Jan-21 04:13 244 8.3
2020-Jan-21 04:03 171 8.9
2020-Jan-21 03:53 157 3 gusting 13 9.4
2020-Jan-21 03:43 307 3 gusting 13 9.4
2020-Jan-21 03:33 311 4 gusting 13 9.4
2020-Jan-21 03:23 349 6 gusting 14 8.9
2020-Jan-21 03:13 331 3 gusting 13 8.9
2020-Jan-21 03:03 329 6 gusting 13 9.4
2020-Jan-21 02:53 295 2 gusting 12 9.4
2020-Jan-21 02:43 360 5 gusting 14 10.0
2020-Jan-21 02:33 338 6 gusting 13 10.0
2020-Jan-21 02:23 360 6 gusting 16 10.6
2020-Jan-21 02:13 046 5 gusting 13 10.6
2020-Jan-21 02:03 013 3 gusting 7 10.6
2020-Jan-21 01:53 019 10.6
2020-Jan-21 01:43 032 2 gusting 7 10.6
2020-Jan-21 01:33 082 8 gusting 20 11.1
2020-Jan-21 01:23 107 5 gusting 13 11.1
2020-Jan-21 01:13 047 5 gusting 14 10.6
2020-Jan-21 01:03 326 3 gusting 9 10.0
2020-Jan-21 00:53 010 2 gusting 10 9.4
2020-Jan-21 00:43 324 5 gusting 11 8.9
2020-Jan-21 00:33 350 5 gusting 12 8.9
2020-Jan-21 00:23 338 6 gusting 13 8.9
2020-Jan-21 00:13 355 6 gusting 14 8.9
2020-Jan-21 00:03 336 4 gusting 9 8.9
2020-Jan-20 23:53 325 3 gusting 9 8.9
2020-Jan-20 23:43 325 1 gusting 8 8.9
2020-Jan-20 23:33 321 0 gusting 9 8.9
2020-Jan-20 23:23 338 2 gusting 7 8.9
2020-Jan-20 23:13 326 0 gusting 7 8.9
2020-Jan-20 23:03 345 2 gusting 9 8.9
2020-Jan-20 22:53 311 2 gusting 8 8.9
2020-Jan-20 22:43 331 8.9
2020-Jan-20 22:33 360 4 gusting 10 8.9
2020-Jan-20 22:23 326 5 gusting 10 8.9
2020-Jan-20 22:13 360 3 gusting 8 8.9
2020-Jan-20 22:03 321 3 gusting 9 8.9
2020-Jan-20 21:53 331 3 gusting 11 8.9
2020-Jan-20 21:43 355 6 gusting 14 8.9
2020-Jan-20 21:33 355 4 gusting 9 8.9
2020-Jan-20 21:23 285 5 gusting 12 8.9
2020-Jan-20 21:13 311 2 gusting 8 8.9
2020-Jan-20 21:03 317 0 gusting 13 8.9
2020-Jan-20 20:53 333 0 gusting 9 8.9
2020-Jan-20 20:43 337 1 gusting 5 8.9
2020-Jan-20 20:33 301 8.9
2020-Jan-20 20:23 318 2 gusting 8 8.9
2020-Jan-20 20:13 335 2 gusting 6 8.3
2020-Jan-20 20:03 360 0 gusting 8 8.3
2020-Jan-20 19:53 350 3 gusting 7 8.3
2020-Jan-20 19:43 346 3 gusting 12 8.3
2020-Jan-20 19:33 348 4 gusting 10 8.3
2020-Jan-20 19:23 338 1 gusting 9 8.3
2020-Jan-20 19:13 303 0 gusting 11 8.9
2020-Jan-20 19:03 335 8.9
2020-Jan-20 18:53 295 0 gusting 7 8.9
2020-Jan-20 18:43 327 4 gusting 8 9.4
2020-Jan-20 18:33 343 0 gusting 4 9.4
2020-Jan-20 18:23 322 9.4
2020-Jan-20 18:13 042 10.0
2020-Jan-20 18:03 041 9.4
2020-Jan-20 17:53 046 0 gusting 9 9.4
2020-Jan-20 17:43 045 5 gusting 9 10.0
2020-Jan-20 17:33 165 10.0
2020-Jan-20 17:23 167 10.6
2020-Jan-20 17:13 169 10.6
2020-Jan-20 17:03 182 10.6
2020-Jan-20 16:53 351 3 gusting 9 10.6
2020-Jan-20 16:43 327 1 gusting 7 10.6
2020-Jan-20 16:33 355 2 gusting 10 10.6
2020-Jan-20 16:23 341 3 gusting 10 10.6
2020-Jan-20 16:13 325 2 gusting 10 10.6
2020-Jan-20 16:03 005 3 gusting 11 10.6
2020-Jan-20 15:53 339 3 gusting 9 10.6
2020-Jan-20 15:43 302 6 gusting 12 11.1
2020-Jan-20 15:33 360 1 gusting 6 11.1
2020-Jan-20 15:23 350 11.1
2020-Jan-20 15:13 334 2 gusting 10 11.1
2020-Jan-20 15:03 260 1 gusting 9 11.7
2020-Jan-20 14:53 317 2 gusting 9 12.2
2020-Jan-20 14:43 019 0 gusting 11 12.8
2020-Jan-20 14:33 049 3 gusting 11 12.2
2020-Jan-20 14:23 292 1 gusting 6 11.7
2020-Jan-20 14:13 335 1 gusting 6 11.7
2020-Jan-20 14:03 306 12.2
2020-Jan-20 13:53 325 3 gusting 8 12.2
2020-Jan-20 13:43 012 1 gusting 11 12.8
2020-Jan-20 13:33 041 0 gusting 9 12.2
2020-Jan-20 13:23 340 12.2
2020-Jan-20 13:13 355 12.2
2020-Jan-20 13:03 019 1 gusting 8 11.7
2020-Jan-20 12:53 039 2 gusting 9 12.2
2020-Jan-20 12:43 046 4 gusting 13 12.2
2020-Jan-20 12:33 036 2 gusting 10 12.2
2020-Jan-20 12:23 046 3 gusting 8 12.2
2020-Jan-20 12:13 055 12.2
2020-Jan-20 12:03 044 11.1
2020-Jan-20 11:53 022 0 gusting 8 10.6
2020-Jan-20 11:43 348 2 gusting 9 10.0
2020-Jan-20 11:33 005 0 gusting 8 9.4
2020-Jan-20 11:23 336 2 gusting 13 9.4
2020-Jan-20 11:13 360 3 gusting 12 8.9
2020-Jan-20 11:03 036 5 gusting 13 8.9
2020-Jan-20 10:53 337 1 gusting 12 8.9
2020-Jan-20 10:43 360 2 gusting 11 8.9
2020-Jan-20 10:33 021 3 gusting 12 8.3
2020-Jan-20 10:23 321 6 gusting 14 8.9
2020-Jan-20 10:13 337 4 gusting 10 8.9
2020-Jan-20 10:03 334 0 gusting 11 8.9
2020-Jan-20 09:53 055 3 gusting 11 8.9
2020-Jan-20 09:43 360 0 gusting 5 8.3
2020-Jan-20 09:33 360 8.3
2020-Jan-20 09:23 046 8.3
2020-Jan-20 09:13 025 2 gusting 6 8.3
2020-Jan-20 09:03 013 8.3
2020-Jan-20 08:53 042 2 gusting 11 8.3
2020-Jan-20 08:43 043 6 gusting 20 8.3
2020-Jan-20 08:33 021 6 gusting 19 8.9
2020-Jan-20 08:23 057 6 gusting 16 8.3
2020-Jan-20 08:13 052 6 gusting 17 8.3
2020-Jan-20 08:03 045 5 gusting 10 8.3
2020-Jan-20 07:53 046 4 gusting 13 8.3
2020-Jan-20 07:43 038 6 gusting 13 8.3